Location: Pedro
(43.9050°N, 104.3408°W)
Time: 18:06:39
(UTC+00:00)

Envisat - Visible Passes

Search period start: 24 January 2022 00:00
Search period end: 03 February 2022 00:00
Orbit: 764 x 766 km, 98.2° (Epoch: 23 January)

Date Brightness Start Highest point End Pass type
(mag) Time Alt. Az. Time Alt. Az. Time Alt. Az.
24 Jan 5.6 10:38:35 10° NE 10:41:46 16° E 10:44:55 10° SE visible
24 Jan 2.9 12:16:11 10° N 12:21:13 63° WNW 12:26:13 10° SSW visible
25 Jan 3.4 11:39:19 10° NNE 11:44:21 61° E 11:49:22 10° S visible
25 Jan 4.3 13:19:25 10° NNW 13:22:53 19° WNW 13:26:21 10° WSW visible
26 Jan 6.4 00:38:27 10° WSW 00:39:49 11° W 00:41:11 10° WNW visible
26 Jan 4.8 11:02:56 10° NE 11:07:18 28° E 11:11:37 10° SSE visible
26 Jan 3.4 12:41:42 10° N 12:46:22 37° WNW 12:51:01 10° SW visible
27 Jan 5.9 10:27:47 10° ENE 10:30:02 13° E 10:32:16 10° ESE visible
27 Jan 2.8 12:04:32 10° N 12:09:39 80° WNW 12:14:43 10° SSW visible
27 Jan 4.8 13:46:10 10° NW 13:47:49 12° WNW 13:49:27 10° WNW visible
28 Jan 3.9 11:27:48 10° NNE 11:32:43 48° E 11:37:36 10° S visible
28 Jan 4.0 13:07:29 10° NNW 13:11:25 23° WNW 13:15:21 10° WSW visible
29 Jan 5.2 10:51:40 10° NE 10:55:36 22° E 10:59:31 10° SE visible
29 Jan 3.2 12:29:58 10° N 12:34:50 47° WNW 12:39:40 10° SW visible
30 Jan 3.0 11:52:56 10° NNE 11:58:03 82° ESE 12:03:08 10° SSW visible
30 Jan 4.6 13:33:43 10° NNW 13:36:23 14° WNW 13:39:02 10° W visible
31 Jan 4.3 11:16:21 10° NNE 11:21:04 37° E 11:25:46 10° SSE visible
31 Jan 3.8 12:55:38 10° N 12:59:56 28° WNW 13:04:14 10° WSW visible
01 Feb 5.5 10:40:31 10° NE 10:43:53 18° E 10:47:14 10° SE visible
01 Feb 2.9 12:18:17 10° N 12:23:17 59° WNW 12:28:16 10° SSW visible
02 Feb 3.3 11:41:22 10° NNE 11:46:27 65° ESE 11:51:28 10° S visible
02 Feb 4.4 13:21:37 10° NNW 13:24:56 18° WNW 13:28:15 10° WSW visible
